Find Starlink 3447

NORAD ID: 51736 Int'l Des: 2022-016 Owner: SPXS Country: US Constellation: starlink operational
LEOCIRCULAR

Live-Position

3D-Globus wird geladen...

Über Starlink 3447

Beschreibung wird geladen...

Nächste Überflüge

Passes for default location (London). Set your location on the main map for personalized predictions.

Höhenverlauf

Loading altitude history...

Zweizeiliger Elementsatz

1 51736U 22016Y 26123.56611711 .00000628 00000-0 57549-4 0 9995
2 51736 53.2176 72.8585 0001485 86.1603 273.9559 15.08836425231845
Epoch: 3. Mai 2026 • Age: 11 hours

Aktueller Status

Höhe 543.3 km
Geschwindigkeit 7.59 km/s
Subsatellitenpunkt -12.24°S, 170.13°W
Startdatum 21. Feb. 2022
Alter 4.1 years
Typ internet

Technische Details

Klassifizierung Payload
Masse 297.00 kg
Trockenmasse 275.00 kg
Gesamtmasse 297.00 kg
Länge 0.20 m
Durchmesser 2.80 m
Spannweite 9.00 m
Form Box + pan
Hersteller SPXS
Bus-Typ Starlink
Phasenstatus In Orbit
Besitzer/Staat SPXS/US

Most Searched